This is the latest recevied weather packets stored in our database for station/object KE0TNI-13. If no packets are shown the sender has not sent any weather packets the latest 10 day(s).
| Time | Temp. | Humidity | Pressure | Rain* | Wind** | Luminosity | Snow |
|---|---|---|---|---|---|---|---|
| 1777749981 | 12.78° C | 28% | 1024.6 hPa | 0 mm | - | 51 W/m² | - |
| 1777749679 | 12.22° C | 24% | 1024.8 hPa | 0 mm | - | 47 W/m² | - |
| 1777749376 | 12.78° C | 27% | 1024.9 hPa | 0 mm | - | 46 W/m² | - |
| 1777749073 | 13.33° C | 24% | 1024.8 hPa | 0 mm | - | 46 W/m² | - |
| 1777748771 | 13.33° C | 23% | 1025 hPa | 0 mm | - | 45 W/m² | - |
| 1777748468 | 13.33° C | 30% | 1024.8 hPa | 0 mm | - | 45 W/m² | - |
| 1777748163 | 13.89° C | 23% | 1024.5 hPa | 0 mm | - | 45 W/m² | - |
| 1777747860 | 13.33° C | 27% | 1025 hPa | 0 mm | - | 46 W/m² | - |
| 1777747556 | 12.78° C | 23% | 1025.3 hPa | 0 mm | - | 46 W/m² | - |
| 1777747251 | 12.78° C | 29% | 1024.9 hPa | 0 mm | - | 46 W/m² | - |
| 1777746948 | 12.22° C | 23% | 1025.2 hPa | 0 mm | - | 47 W/m² | - |
| 1777746644 | 12.78° C | 25% | 1025.2 hPa | 0 mm | - | 47 W/m² | - |
| 1777746339 | 12.22° C | 28% | 1025.3 hPa | 0 mm | - | 74 W/m² | - |
| 1777746036 | 11.67° C | 24% | 1025.2 hPa | 0 mm | - | 923 W/m² | - |
| 1777745734 | 11.11° C | 25% | 1025.3 hPa | 0 mm | - | 1006 W/m² | - |
| 1777745432 | 11.67° C | 25% | 1025.3 hPa | 0 mm | - | 999 W/m² | - |
| 1777745129 | 12.22° C | 25% | 1025.7 hPa | 0 mm | - | 993 W/m² | - |
| 1777744826 | 11.67° C | 28% | 1025.4 hPa | 0 mm | - | 989 W/m² | - |
| 1777744520 | 11.11° C | 34% | 1025.7 hPa | 0 mm | - | 980 W/m² | - |
| 1777744216 | 11.11° C | 25% | 1025.4 hPa | 0 mm | - | 971 W/m² | - |
| 1777743913 | 11.11° C | 29% | 1025.7 hPa | 0 mm | - | 967 W/m² | - |
| 1777743609 | 10.56° C | 31% | 1025.3 hPa | 0 mm | - | 958 W/m² | - |
| 1777743307 | 11.11° C | 30% | 1025.8 hPa | 0 mm | - | 951 W/m² | - |
| 1777743005 | 11.11° C | 28% | 1025.8 hPa | 0 mm | - | 941 W/m² | - |
| 1777742702 | 10.56° C | 27% | 1025.4 hPa | 0 mm | - | 929 W/m² | - |
* Rain latest hour (hover to see other rain measurements)
** Current wind speed in m/s (hover to see current wind gust speed)